FW8972 Weather Reports


time (UTC)temp
C
wind
direction
speed
KPH
gust
KPH
rain 1hr
cm
rain 24hr
cm
rain mn
cm
humidity
%
barometer
mb
20260504151003 18 5 0.0 4.8 0.00 0.00 0.00 41 1010.3
20260504150504 18 360 0.0 6.4 0.00 0.00 0.00 41 1010.2
20260504141048 12 10 0.0 4.8 0.00 0.00 0.00 59 1009.9
20260504140547 12 336 0.0 0.0 0.00 0.00 0.00 60 1009.9
20260504130535 11 299 0.0 0.0 0.00 0.00 0.00 56 1009.8
20260504110514 15 299 0.0 0.0 0.00 0.00 0.00 44 1009.3
20260504100503 17 299 0.0 1.6 0.00 0.00 0.00 39 1009.3
20260504081550 18 297 0.0 1.6 0.00 0.00 0.00 37 1009.5
20260504081049 18 299 0.0 1.6 0.00 0.00 0.00 36 1009.4
20260504080549 18 298 0.0 1.6 0.00 0.00 0.00 36 1009.3
20260504050537 18 306 0.0 0.0 0.00 0.00 0.00 34 1009.5
20260504045536 18 306 0.0 0.0 0.00 0.00 0.00 34 1009.5
20260504045035 18 306 0.0 0.0 0.00 0.00 0.00 34 1009.6
20260504044538 19 306 0.0 0.0 0.00 0.00 0.00 34 1009.6
20260504044035 19 306 0.0 0.0 0.00 0.00 0.00 34 1009.6
20260504043535 19 306 0.0 3.2 0.00 0.00 0.00 34 1009.5
20260504043042 19 306 0.0 3.2 0.00 0.00 0.00 35 1009.6
20260504042534 19 306 0.0 0.0 0.00 0.00 0.00 35 1009.6
20260504042034 19 306 0.0 0.0 0.00 0.00 0.00 35 1009.6
20260504041535 19 306 0.0 0.0 0.00 0.00 0.00 35 1009.6
20260504041034 19 306 0.0 0.0 0.00 0.00 0.00 35 1009.6
20260504040535 20 306 0.0 1.6 0.00 0.00 0.00 34 1009.6
20260504040035 20 306 0.0 1.6 0.00 0.00 0.00 34 1009.6
20260504035535 20 306 0.0 1.6 0.00 0.00 0.00 34 1009.4
20260504035037 20 306 0.0 1.6 0.00 0.00 0.00 32 1009.4
20260504034539 21 306 0.0 1.6 0.00 0.00 0.00 31 1009.5
20260504034032 21 306 0.0 0.0 0.00 0.00 0.00 31 1009.5
20260504033532 21 306 0.0 0.0 0.00 0.00 0.00 29 1009.5
20260504033032 22 306 0.0 0.0 0.00 0.00 0.00 27 1009.6
20260504032532 22 306 0.0 0.0 0.00 0.00 0.00 26 1009.6
20260504032035 22 306 0.0 0.0 0.00 0.00 0.00 26 1009.6
20260504031532 22 306 0.0 0.0 0.00 0.00 0.00 26 1009.7
20260504031032 23 306 0.0 0.0 0.00 0.00 0.00 25 1009.7
20260504030531 23 306 0.0 0.0 0.00 0.00 0.00 25 1009.7
20260504030030 23 306 0.0 0.0 0.00 0.00 0.00 25 1009.7
20260504025533 24 306 0.0 0.0 0.00 0.00 0.00 25 1009.8
20260504025031 24 306 0.0 0.0 0.00 0.00 0.00 25 1009.9
20260504024530 25 306 0.0 1.6 0.00 0.00 0.00 25 1009.9
20260504024028 25 306 0.0 1.6 0.00 0.00 0.00 24 1009.9
20260504023529 25 306 0.0 1.6 0.00 0.00 0.00 23 1009.9
20260504023028 25 306 0.0 1.6 0.00 0.00 0.00 21 1010.0
20260504022530 25 303 0.0 1.6 0.00 0.00 0.00 22 1010.0
20260504022028 25 303 0.0 1.6 0.00 0.00 0.00 21 1010.0
20260504021533 25 302 0.0 3.2 0.00 0.00 0.00 19 1010.1
20260504021027 25 302 0.0 6.4 0.00 0.00 0.00 19 1010.2
20260504020527 25 304 1.6 6.4 0.00 0.00 0.00 21 1010.2
20260504020029 25 333 1.6 6.4 0.00 0.00 0.00 21 1010.2
20260504015527 25 339 1.6 6.4 0.00 0.00 0.00 21 1010.2
20260504015025 25 293 0.0 6.4 0.00 0.00 0.00 20 1010.3
20260504014534 26 5 0.0 6.4 0.00 0.00 0.00 19 1010.3
20260504014023 26 329 0.0 6.4 0.00 0.00 0.00 19 1010.5
20260504013524 26 341 0.0 8.0 0.00 0.00 0.00 19 1010.4
20260504013023 26 321 0.0 6.4 0.00 0.00 0.00 20 1010.5
20260504012524 26 360 1.6 6.4 0.00 0.00 0.00 19 1010.4
20260504012024 26 323 1.6 4.8 0.00 0.00 0.00 19 1010.5
20260504011523 26 348 1.6 6.4 0.00 0.00 0.00 18 1010.5
20260504011022 27 298 0.0 6.4 0.00 0.00 0.00 17 1010.5
20260504010523 27 12 3.2 6.4 0.00 0.00 0.00 17 1010.6
20260504010021 27 327 1.6 9.7 0.00 0.00 0.00 17 1010.6
20260504005521 26 261 3.2 8.0 0.00 0.00 0.00 17 1010.6
20260504005020 26 315 1.6 6.4 0.00 0.00 0.00 17 1010.7
20260504004520 26 348 1.6 8.0 0.00 0.00 0.00 18 1010.7
20260504004018 27 311 1.6 8.0 0.00 0.00 0.00 19 1010.8
20260504003517 27 330 1.6 6.4 0.00 0.00 0.00 19 1010.9
20260504003016 26 267 0.0 8.0 0.00 0.00 0.00 20 1010.9
20260504002514 26 5 1.6 8.0 0.00 0.00 0.00 21 1010.9
20260504002014 26 304 1.6 4.8 0.00 0.00 0.00 21 1011.0
20260504001513 26 46 1.6 6.4 0.00 0.00 0.00 22 1011.0
20260504001012 26 26 1.6 6.4 0.00 0.00 0.00 21 1011.1
20260504000512 26 74 3.2 6.4 0.00 0.00 0.00 22 1011.0
20260504000011 26 274 1.6 6.4 0.00 0.00 0.00 22 1011.2
20260503235514 26 355 1.6 6.4 0.00 0.00 0.00 23 1011.2
20260503235011 26 40 1.6 4.8 0.00 0.00 0.00 23 1011.3
20260503234516 26 44 1.6 6.4 0.00 0.00 0.00 22 1011.4
20260503234008 26 105 1.6 6.4 0.00 0.00 0.00 23 1011.4
20260503233507 26 292 1.6 6.4 0.00 0.00 0.00 23 1011.5
20260503233005 26 355 3.2 6.4 0.00 0.00 0.00 23 1011.5
20260503232505 26 5 1.6 8.0 0.00 0.00 0.00 23 1011.5
20260503232004 25 22 0.0 8.0 0.00 0.00 0.00 23 1011.7
20260503231504 26 316 1.6 8.0 0.00 0.00 0.00 23 1011.7
20260503231004 25 66 1.6 9.7 0.00 0.00 0.00 24 1011.8
20260503230501 25 360 3.2 9.7 0.00 0.00 0.00 23 1011.7
20260503230001 25 72 1.6 11.3 0.00 0.00 0.00 23 1011.8
20260503225500 25 31 3.2 12.9 0.00 0.00 0.00 22 1011.9
20260503224604 25 5 3.2 9.7 0.00 0.00 0.00 23 1011.9
20260503224058 25 50 1.6 9.7 0.00 0.00 0.00 25 1012.0
20260503223558 25 347 1.6 12.9 0.00 0.00 0.00 26 1012.1
20260503223059 25 5 4.8 12.9 0.00 0.00 0.00 24 1012.1
20260503222559 25 9 3.2 8.0 0.00 0.00 0.00 25 1012.3
20260503222055 25 48 3.2 8.0 0.00 0.00 0.00 25 1012.4
20260503221556 25 20 4.8 9.7 0.00 0.00 0.00 24 1012.5
20260503221056 25 10 3.2 9.7 0.00 0.00 0.00 24 1012.5
20260503220553 25 38 1.6 9.7 0.00 0.00 0.00 25 1012.5
20260503220053 24 360 3.2 12.9 0.00 0.00 0.00 24 1012.6
20260503215552 25 360 3.2 8.0 0.00 0.00 0.00 25 1012.6
20260503215050 24 325 1.6 8.0 0.00 0.00 0.00 25 1012.7
20260503214550 24 28 1.6 9.7 0.00 0.00 0.00 25 1012.8
20260503214048 24 5 4.8 9.7 0.00 0.00 0.00 25 1013.2
20260503213547 23 43 1.6 8.0 0.00 0.00 0.00 29 1013.0
20260503213046 23 53 3.2 11.3 0.00 0.00 0.00 28 1013.1
20260503212546 23 5 1.6 9.7 0.00 0.00 0.00 27 1013.2
20260503212044 23 49 1.6 9.7 0.00 0.00 0.00 27 1013.2
20260503211603 23 12 3.2 9.7 0.00 0.00 0.00 26 1013.3
20260503211042 23 59 3.2 9.7 0.00 0.00 0.00 28 1013.4
20260503210541 22 331 3.2 9.7 0.00 0.00 0.00 27 1013.3
20260503210040 22 340 3.2 8.0 0.00 0.00 0.00 28 1013.3
20260503205539 22 360 3.2 8.0 0.00 0.00 0.00 29 1013.3
20260503205039 22 34 1.6 14.5 0.00 0.00 0.00 31 1013.5
20260503204538 22 333 6.4 14.5 0.00 0.00 0.00 29 1013.4
20260503204037 22 57 1.6 12.9 0.00 0.00 0.00 31 1013.5
20260503203536 22 341 1.6 9.7 0.00 0.00 0.00 31 1013.5
20260503203044 22 21 3.2 12.9 0.00 0.00 0.00 31 1013.5
20260503202535 22 9 4.8 12.9 0.00 0.00 0.00 31 1013.6
20260503202035 22 21 3.2 12.9 0.00 0.00 0.00 31 1013.7
20260503201535 21 44 3.2 12.9 0.00 0.00 0.00 31 1013.8
20260503201034 21 299 1.6 6.4 0.00 0.00 0.00 33 1013.8
20260503200532 21 355 1.6 12.9 0.00 0.00 0.00 35 1013.9
20260503200046 21 41 6.4 12.9 0.00 0.00 0.00 33 1013.9
20260503195531 21 25 1.6 9.7 0.00 0.00 0.00 35 1014.1
20260503195031 22 351 1.6 9.7 0.00 0.00 0.00 35 1014.2
20260503194530 21 319 3.2 9.7 0.00 0.00 0.00 37 1014.2
20260503194030 22 34 4.8 9.7 0.00 0.00 0.00 33 1014.2
20260503193528 22 17 3.2 9.7 0.00 0.00 0.00 35 1014.3
20260503193033 22 346 3.2 9.7 0.00 0.00 0.00 35 1014.3
20260503192526 21 30 3.2 8.0 0.00 0.00 0.00 33 1014.3
20260503192026 21 9 0.0 8.0 0.00 0.00 0.00 36 1014.4
20260503191523 21 5 3.2 6.4 0.00 0.00 0.00 36 1014.4
20260503191022 21 100 1.6 8.0 0.00 0.00 0.00 37 1014.4